Overview Statistics Trail Chart Weather Telemetry Raw packets
 

This is the latest recevied weather packets stored in our database for station/object SV9TNF-56. If no packets are shown the sender has not sent any weather packets the latest 10 day(s).

<< 25 26 27 28 29 30 31 >>
Time Temp. Humidity Pressure Rain* Wind** Luminosity Snow
1788483569 24.44° C 73% 1009.8 hPa 0 mm 18.33 m/s, 334° - -
1788483268 24.44° C 72% 1009.8 hPa 0 mm 12.07 m/s, 294° - -
1788482969 24.44° C 71% 1009.8 hPa 0 mm 12.07 m/s, 342° - -
1788482675 24.44° C 71% 1009.8 hPa 0 mm 8.94 m/s, 260° - -
1788482369 24.44° C 71% 1009.8 hPa 0 mm 21.01 m/s, 259° - -
1788482068 24.44° C 71% 1009.5 hPa 0 mm 26.82 m/s, 264° - -
1788481768 24.44° C 71% 1009.8 hPa 0 mm 17.88 m/s, 296° - -
1788481468 24.44° C 70% 1009.8 hPa 0 mm 16.99 m/s, 251° - -
1788481168 24.44° C 69% 1009.8 hPa 0 mm 15.2 m/s, 150° - -
1788480868 24.44° C 68% 1009.8 hPa 0 mm 8.94 m/s, 174° - -
1788480568 24.44° C 67% 1009.8 hPa 0 mm 6.26 m/s, 257° - -
1788480267 24.44° C 67% 1009.8 hPa 0 mm 6.26 m/s, 213° - -
1788479968 24.44° C 67% 1010.2 hPa 0 mm 11.18 m/s, 216° - -
1788479668 24.44° C 67% 1009.8 hPa 0 mm 6.71 m/s, 195° - -
1788479367 24.44° C 68% 1009.8 hPa 0 mm 8.94 m/s, 222° - -
1788479067 24.44° C 69% 1009.8 hPa 0 mm 16.99 m/s, 262° - -
1788478767 24.44° C 68% 1009.8 hPa 0 mm 5.36 m/s, 162° - -
1788478467 24.44° C 69% 1009.8 hPa 0 mm 11.18 m/s, 210° - -
1788478174 24.44° C 69% 1009.8 hPa 0 mm 11.18 m/s, 150° - -
1788477867 24.44° C 69% 1010.2 hPa 0 mm 7.15 m/s, 120° - -
1788477567 24.44° C 69% 1010.2 hPa 0 mm 12.52 m/s, 97° - -
1788477266 24.44° C 69% 1009.8 hPa 0 mm 4.92 m/s, 201° - -
1788476966 24.44° C 68% 1010.2 hPa 0 mm 21.46 m/s, 222° - -
1788476666 25° C 67% 1010.2 hPa 0 mm 16.99 m/s, 300° - -
1788476366 25° C 66% 1010.2 hPa 0 mm 21.01 m/s, 18° - -

* Rain latest hour (hover to see other rain measurements)
** Current wind speed in m/s (hover to see current wind gust speed)